| time (UTC) | temp F | wind direction | speed knots | gust knots | rain 1hr in | rain 24hr in | rain mn in | humidity % | barometer mb |
| 20260506033042 | 51 | 164 | 5.2 | 10.4 | 0.00 | 0.00 | 0.00 | 90 | 1009.1 |
| 20260506031542 | 51 | 117 | 4.3 | 9.6 | 0.00 | 0.00 | 0.00 | 90 | 1009.2 |
| 20260506030039 | 51 | 158 | 3.5 | 9.6 | 0.00 | 0.00 | 0.00 | 89 | 1009.1 |
| 20260506024547 | 52 | 86 | 3.5 | 9.6 | 0.00 | 0.00 | 0.00 | 89 | 1009.2 |
| 20260506023039 | 52 | 160 | 2.6 | 8.7 | 0.00 | 0.00 | 0.00 | 88 | 1009.2 |
| 20260506021538 | 53 | 230 | 2.6 | 9.6 | 0.00 | 0.00 | 0.00 | 87 | 1009.5 |
| 20260506020036 | 54 | 197 | 5.2 | 9.6 | 0.00 | 0.00 | 0.00 | 86 | 1009.3 |
| 20260506014535 | 54 | 123 | 7.0 | 13.0 | 0.00 | 0.00 | 0.00 | 85 | 1009.3 |
| 20260506013034 | 55 | 138 | 3.5 | 13.9 | 0.00 | 0.00 | 0.00 | 84 | 1009.5 |
| 20260506011559 | 56 | 133 | 5.2 | 13.9 | 0.00 | 0.00 | 0.00 | 83 | 1009.2 |
| 20260506010031 | 56 | 159 | 7.0 | 15.6 | 0.00 | 0.00 | 0.00 | 83 | 1009.2 |
| 20260506004533 | 55 | 207 | 7.0 | 13.0 | 0.00 | 0.00 | 0.00 | 83 | 1008.5 |
| 20260506003030 | 56 | 169 | 7.0 | 13.0 | 0.00 | 0.00 | 0.00 | 81 | 1008.5 |
| 20260506001530 | 57 | 205 | 7.0 | 13.0 | 0.00 | 0.00 | 0.00 | 81 | 1007.9 |
| 20260506000121 | 58 | 150 | 3.5 | 10.4 | 0.00 | 0.00 | 0.00 | 81 | 1008.1 |
| 20260505234558 | 57 | 175 | 2.6 | 9.6 | 0.00 | 0.00 | 0.00 | 82 | 1008.2 |
| 20260505233059 | 53 | 304 | 4.3 | 20.0 | 0.00 | 0.00 | 0.00 | 87 | 1007.7 |
| 20260505231609 | 53 | 141 | 5.2 | 14.8 | 0.00 | 0.00 | 0.00 | 87 | 1006.3 |
| 20260505230105 | 53 | 166 | 10.4 | 19.1 | 0.00 | 0.00 | 0.00 | 87 | 1006.1 |
| 20260505224552 | 54 | 137 | 8.7 | 19.1 | 0.00 | 0.00 | 0.00 | 86 | 1006.0 |
| 20260505223049 | 54 | 140 | 7.8 | 17.4 | 0.00 | 0.00 | 0.00 | 84 | 1005.7 |
| 20260505221557 | 55 | 195 | 8.7 | 17.4 | 0.00 | 0.00 | 0.00 | 84 | 1005.7 |
| 20260505220048 | 55 | 207 | 7.0 | 18.2 | 0.00 | 0.00 | 0.00 | 84 | 1005.6 |
| 20260505214547 | 55 | 162 | 7.8 | 20.9 | 0.00 | 0.00 | 0.00 | 84 | 1005.6 |
| 20260505213017 | 56 | 162 | 7.8 | 23.5 | 0.00 | 0.00 | 0.00 | 83 | 1005.7 |
| 20260505211525 | 57 | 131 | 9.6 | 22.6 | 0.00 | 0.00 | 0.00 | 82 | 1005.5 |
| 20260505210011 | 57 | 143 | 10.4 | 26.9 | 0.00 | 0.00 | 0.00 | 81 | 1005.7 |
| 20260505204511 | 57 | 166 | 8.7 | 15.6 | 0.00 | 0.00 | 0.00 | 82 | 1005.6 |
| 20260505183031 | 56 | 155 | 7.0 | 17.4 | 0.00 | 0.00 | 0.00 | 85 | 1006.9 |
| 20260505181534 | 55 | 156 | 11.3 | 18.2 | 0.00 | 0.00 | 0.00 | 85 | 1007.1 |
| 20260505180038 | 55 | 204 | 8.7 | 23.5 | 0.00 | 0.00 | 0.00 | 86 | 1007.1 |
| 20260505174529 | 56 | 173 | 7.0 | 17.4 | 0.00 | 0.00 | 0.00 | 85 | 1007.8 |
| 20260505173022 | 55 | 186 | 8.7 | 19.1 | 0.00 | 0.00 | 0.00 | 85 | 1008.1 |
| 20260505171519 | 56 | 149 | 6.1 | 19.1 | 0.00 | 0.00 | 0.00 | 85 | 1007.8 |
| 20260505170020 | 55 | 159 | 6.1 | 15.6 | 0.00 | 0.00 | 0.00 | 86 | 1008.1 |
| 20260505164515 | 55 | 172 | 6.1 | 13.9 | 0.00 | 0.00 | 0.00 | 86 | 1008.2 |
| 20260505163015 | 54 | 191 | 7.8 | 14.8 | 0.00 | 0.00 | 0.00 | 86 | 1008.6 |
| 20260505161509 | 55 | 171 | 6.1 | 13.9 | 0.00 | 0.00 | 0.00 | 86 | 1008.6 |
| 20260505153002 | 52 | 217 | 7.8 | 15.6 | 0.00 | 0.00 | 0.00 | 90 | 1009.5 |
| 20260505151559 | 51 | 169 | 7.0 | 17.4 | 0.00 | 0.00 | 0.00 | 91 | 1009.8 |
| 20260505150111 | 51 | 197 | 8.7 | 15.6 | 0.00 | 0.00 | 0.00 | 90 | 1009.2 |
| 20260505124540 | 51 | 254 | 3.5 | 12.2 | 0.00 | 0.00 | 0.00 | 90 | 1009.1 |
| 20260505123023 | 51 | 240 | 2.6 | 11.3 | 0.00 | 0.00 | 0.00 | 90 | 1009.2 |
| 20260505121529 | 51 | 134 | 3.5 | 10.4 | 0.00 | 0.00 | 0.00 | 89 | 1009.2 |
| 20260505120015 | 50 | 136 | 4.3 | 11.3 | 0.00 | 0.00 | 0.00 | 90 | 1009.5 |
| 20260505114515 | 50 | 153 | 2.6 | 7.8 | 0.00 | 0.00 | 0.00 | 90 | 1009.4 |
| 20260505113014 | 50 | 158 | 3.5 | 9.6 | 0.00 | 0.00 | 0.00 | 91 | 1009.5 |
| 20260505111509 | 49 | 120 | 3.5 | 7.8 | 0.00 | 0.00 | 0.00 | 91 | 1009.5 |
| 20260505101503 | 48 | 146 | 2.6 | 8.7 | 0.00 | 0.00 | 0.00 | 91 | 1009.2 |
| 20260505100008 | 48 | 158 | 2.6 | 5.2 | 0.00 | 0.00 | 0.00 | 91 | 1009.1 |
| 20260505094502 | 48 | 156 | 0.9 | 5.2 | 0.00 | 0.00 | 0.00 | 91 | 1009.1 |
| 20260505093001 | 48 | 241 | 2.6 | 8.7 | 0.00 | 0.00 | 0.00 | 91 | 1009.1 |
| 20260505091617 | 48 | 153 | 2.6 | 7.8 | 0.00 | 0.00 | 0.00 | 91 | 1009.3 |
| 20260505090101 | 48 | 174 | 1.7 | 6.1 | 0.00 | 0.00 | 0.00 | 90 | 1009.3 |
| 20260505084554 | 49 | 131 | 0.9 | 6.1 | 0.00 | 0.00 | 0.00 | 89 | 1009.3 |
| 20260505083054 | 49 | 205 | 3.5 | 10.4 | 0.00 | 0.00 | 0.00 | 89 | 1009.4 |
| 20260505081522 | 49 | 123 | 1.7 | 6.1 | 0.00 | 0.00 | 0.00 | 88 | 1009.3 |
| 20260505080019 | 49 | 176 | 3.5 | 7.8 | 0.00 | 0.00 | 0.00 | 88 | 1009.3 |
| 20260505074515 | 49 | 179 | 2.6 | 8.7 | 0.00 | 0.00 | 0.00 | 87 | 1009.4 |
| 20260505073014 | 50 | 148 | 3.5 | 6.1 | 0.00 | 0.00 | 0.00 | 87 | 1009.2 |
| 20260505071512 | 50 | 238 | 2.6 | 8.7 | 0.00 | 0.00 | 0.00 | 86 | 1009.3 |
| 20260505070012 | 50 | 129 | 1.7 | 7.8 | 0.00 | 0.00 | 0.00 | 85 | 1009.2 |
| 20260505064540 | 51 | 150 | 2.6 | 7.0 | 0.00 | 0.00 | 0.00 | 84 | 1009.1 |
| 20260505063048 | 51 | 195 | 2.6 | 7.8 | 0.00 | 0.00 | 0.00 | 84 | 1009.1 |
| 20260505061540 | 51 | 154 | 3.5 | 7.0 | 0.00 | 0.00 | 0.00 | 83 | 1009.2 |
| 20260505060037 | 51 | 174 | 1.7 | 8.7 | 0.00 | 0.00 | 0.00 | 82 | 1009.2 |
| 20260505054546 | 51 | 147 | 4.3 | 8.7 | 0.00 | 0.00 | 0.00 | 82 | 1009.1 |
| 20260505053039 | 52 | 141 | 3.5 | 7.8 | 0.00 | 0.00 | 0.00 | 82 | 1009.1 |
| 20260505051504 | 52 | 131 | 5.2 | 9.6 | 0.00 | 0.00 | 0.00 | 81 | 1009.0 |
| 20260505041609 | 53 | 126 | 6.1 | 16.5 | 0.00 | 0.00 | 0.00 | 78 | 1008.5 |
| 20260505040103 | 54 | 170 | 6.1 | 11.3 | 0.00 | 0.00 | 0.00 | 76 | 1008.3 |
| 20260505034527 | 54 | 155 | 5.2 | 11.3 | 0.00 | 0.00 | 0.00 | 76 | 1008.4 |